Notices

What's New in latest Release from April 7th, 2021:

- Updated Glossary, including Speed of Maximum Gust, and Total Hourly Precipitation

- Updated national and regional climate services offices contacts and prices information

- Addition of station inventory lists for 1981-2010, 1971-2000, and 1961-1990 Normals.

If you haven't already, please take our survey and provide feedback about our website: https://eccc.sondage-survey.ca/f/LanguageSelection.aspx?s=442ca660-fcf1-47c0-95a9-59707d6fd709

Hourly Data Report for May 05, 2021

MIRAMICHI RCS
NEW BRUNSWICK
Current Station Operator: ECCC - MSC

47°00'34.000" N
65°27'54.000" W
33.00 m
8100989
71744
ACQ

Download Data

Hourly Data (May 2021)
Hourly Data Report for May 5, 2021
TIME
LST
Temp Definition
°C
Dew Point Definition
°C
Rel Hum Definition
%
Precip. Amount Definition
mm

Wind Dir Definition
10's deg

Wind Spd Definition
km/h
Visibility Definition
km
Stn Press Definition
kPa
Hmdx Definition


Wind Chill Definition


Weather Definition


00:00 5.6 -0.2 66 LegendMM 5 5   100.85     LegendNANA
01:00 6.1 -0.8 61 LegendMM 4 9   100.89     LegendNANA
02:00 5.6 0.1 68 LegendMM 4 9   100.92     LegendNANA
03:00 4.8 0.9 76 LegendMM 6 10   100.87     LegendNANA
04:00 4.8 1.5 79 LegendMM 4 7   100.96     LegendNANA
05:00 5.0 1.7 79 LegendMM 5 9   100.95     LegendNANA
06:00 5.2 2.0 80 LegendMM 3 2   101.03     LegendNANA
07:00 6.1 1.7 73 LegendMM 4 8   101.02     LegendNANA
08:00 6.8 1.8 70 LegendMM 6 6   101.07     LegendNANA
09:00 8.4 -0.3 54 LegendMM 8 12   101.00     LegendNANA
10:00 8.8 1.0 58 LegendMM 8 14   101.00     LegendNANA
11:00 8.9 1.3 59 LegendMM 5 17   100.94     LegendNANA
12:00 8.5 0.9 58 LegendMM 5 17   100.92     LegendNANA
13:00 8.1 1.7 64 LegendMM 5 17   100.91     LegendNANA
14:00 8.2 1.2 61 LegendMM 5 16   100.90     LegendNANA
15:00 7.3 0.6 62 LegendMM 6 20   100.87     LegendNANA
16:00 6.5 2.5 76 LegendMM 6 14   100.85     LegendNANA
17:00 6.0 3.7 85 LegendMM 7 20   100.81     LegendNANA
18:00 5.8 4.2 89 LegendMM 7 17   100.74     LegendNANA
19:00 5.7 3.6 86 LegendMM 7 15   100.71     LegendNANA
20:00 5.4 3.4 87 LegendMM 7 14   100.70     LegendNANA
21:00 5.0 3.5 90 LegendMM 5 12   100.66     LegendNANA
22:00 5.0 3.6 91 LegendMM 5 11   100.59     LegendNANA
23:00 4.8 3.9 93 LegendMM 5 12   100.49     LegendNANA

Notes on Data Quality.

Legend

  • E = Estimated
  • M = Missing
  • NA = Not Available*
  • [empty] = Indicates an unobserved value
Date modified: